Change the Weather History Date:

Monday, January 13, 2014

  Actual Average Record
Temperature  
Mean Temperature 24 °F 23 °F  
Max Temperature 33 °F 35 °F 53 °F (1945)
Min Temperature 15 °F 11 °F -36 °F (1963)
Degree Days  
Heating Degree Days 41 42  
Month to date heating degree days 565 546  
Since 1 July heating degree days 3539 3310  
Cooling Degree Days 0 0  
Month to date cooling degree days 0 0  
Year to date cooling degree days 0 0  
Moisture  
Dew Point 12 °F    
Average Humidity 61    
Maximum Humidity 80    
Minimum Humidity 41    
Precipitation  
Precipitation 0.00 in 0.02 in 0.30 in (1918)
Month to date precipitation 0.21 0.40  
Year to date precipitation 0.21 0.40  
Sea Level Pressure  
Sea Level Pressure 30.42 in    
Wind  
Wind Speed 3 mph (ESE)    
Max Wind Speed 10 mph    
Max Gust Speed 12 mph    
Visibility 10 miles    
Events      
T = Trace of Precipitation, MM = Missing Value Source: NWS Daily Summary

Daily Weather History Graph

Daily Weather History Graph

Search for Another Location

Airport or City:

Trip Planner

Search our weather history database for the weather conditions in past years. The results will help you decide how hot, cold, wet, or windy it might be!

Date:

Astronomy

Jan. 13, 2014 Rise Set
Actual Time 7:30 AM MST 5:09 PM MST
Civil Twilight 7:00 AM MST 5:39 PM MST
Nautical Twilight 6:27 AM MST 6:12 PM MST
Astronomical Twilight 5:55 AM MST 6:44 PM MST
Moon 3:26 PM MST (1/13) 5:21 AM MST (1/13)
Length of Visible Light 10h 38m
Length of Day
9h 39m
Waxing Gibbous, 95% of the Moon is Illuminated
Jan 13
Waxing Gibbous
Jan 15
Full
Jan 23
Last Quarter
Jan 30
New
Feb 6
First Quarter

Hourly Weather History & Observations

Time (MST) Temp. Windchill Dew Point Humidity Pressure Visibility Wind Dir Wind Speed Gust Speed Precip Events Conditions
12:53 AM 18.0 °F 9.8 °F 7.0 °F 62% 30.31 in 10.0 mi ESE 5.8 mph - N/A   Scattered Clouds
1:53 AM 15.1 °F 5.2 °F 7.0 °F 70% 30.34 in 10.0 mi NE 6.9 mph - N/A   Mostly Cloudy
2:53 AM 17.1 °F - 8.1 °F 68% 30.35 in 10.0 mi Calm Calm - N/A   Overcast
3:53 AM 19.0 °F - 10.0 °F 68% 30.36 in 10.0 mi Calm Calm - N/A   Overcast
4:53 AM 18.0 °F - 10.0 °F 71% 30.38 in 10.0 mi Calm Calm - N/A   Overcast
5:53 AM 18.0 °F - 10.0 °F 71% 30.41 in 10.0 mi Calm Calm - N/A   Overcast
6:53 AM 18.0 °F 12.7 °F 10.9 °F 74% 30.44 in 10.0 mi East 3.5 mph - N/A   Overcast
7:53 AM 19.0 °F - 12.0 °F 74% 30.47 in 10.0 mi Calm Calm - N/A   Overcast
8:53 AM 19.9 °F - 12.0 °F 71% 30.50 in 10.0 mi Calm Calm - N/A   Overcast
9:53 AM 21.9 °F - 12.0 °F 66% 30.51 in 10.0 mi Calm Calm - N/A   Overcast
10:53 AM 23.0 °F 18.4 °F 10.9 °F 60% 30.51 in 10.0 mi West 3.5 mph - N/A   Clear
11:53 AM 28.9 °F - 12.9 °F 51% 30.46 in 10.0 mi Calm Calm - N/A   Clear
12:53 PM 30.0 °F - 12.9 °F 49% 30.43 in 10.0 mi Calm Calm - N/A   Clear
1:53 PM 32.0 °F - 12.0 °F 44% 30.41 in 10.0 mi Calm Calm - N/A   Clear
2:53 PM 33.1 °F 28.7 °F 12.9 °F 43% 30.39 in 10.0 mi SE 4.6 mph - N/A   Clear
3:53 PM 30.9 °F 25.2 °F 18.0 °F 59% 30.39 in 10.0 mi SE 5.8 mph - N/A   Clear
4:53 PM 30.9 °F 26.2 °F 17.1 °F 57% 30.40 in 10.0 mi SE 4.6 mph - N/A   Mostly Cloudy
5:53 PM 32.0 °F 24.8 °F 19.0 °F 59% 30.40 in 10.0 mi South 8.1 mph - N/A   Overcast
6:53 PM 30.0 °F 25.2 °F 18.0 °F 61% 30.41 in 10.0 mi ESE 4.6 mph - N/A   Overcast
7:53 PM 25.0 °F 17.1 °F 15.1 °F 66% 30.45 in 10.0 mi SE 6.9 mph - N/A   Scattered Clouds
8:53 PM 24.1 °F 18.2 °F 14.0 °F 65% 30.45 in 10.0 mi ESE 4.6 mph - N/A   Clear
9:53 PM 19.0 °F - 12.9 °F 77% 30.47 in 10.0 mi Calm Calm - N/A   Clear
10:53 PM 18.0 °F 7.7 °F 12.0 °F 78% 30.48 in 10.0 mi East 8.1 mph - N/A   Clear
11:53 PM 17.1 °F 8.7 °F 12.0 °F 81% 30.46 in 10.0 mi East 5.8 mph - N/A   Clear